SAR-LUPE 2 1 31797U 07030A 26255.29090741 .00048070 00000+0 54948-3 0 9990 2 31797 98.1095 11.4082 0004289 170.9819 189.1515 15.62030103070485 SAPPHIRE 1 39088U 13009C 26255.30488269 .00000042 00000+0 29822-4 0 9993 2 39088 98.4311 72.7222 0011064 355.9520 4.1575 14.35259542709074 PRAETORIAN SDA_602 1 65565U 25203A 26255.14236513 .00000060 00000+0 43781-4 0 9996 2 65565 81.3007 290.2820 0005292 329.8477 30.2374 13.83892634050729 PRAETORIAN SDA_603 1 65566U 25203B 26255.09522852 .00000214 00000+0 18192-3 0 9993 2 65566 81.3015 290.2441 0008841 321.9044 38.1487 13.83965879050728 PRAETORIAN SDA_604 1 65567U 25203C 26255.09919997 .00000053 00000+0 37249-4 0 9990 2 65567 81.3031 290.7904 0004921 336.1484 23.9443 13.83056095050698 PRAETORIAN SDA_605 1 65568U 25203D 26255.12540626 .00000053 00000+0 38013-4 0 9994 2 65568 81.2996 290.3724 0007504 323.0817 36.9822 13.83133611050717 PRAETORIAN SDA_606 1 65569U 25203E 26255.10997116 .00000059 00000+0 42872-4 0 9997 2 65569 81.3032 290.6461 0005332 327.8704 32.2127 13.83210914050703 PRAETORIAN SDA_607 1 65570U 25203F 26255.14894817 .00000206 00000+0 17535-3 0 9998 2 65570 81.3013 290.1689 0008078 322.0234 38.0351 13.83763306050730 PRAETORIAN SDA_608 1 65571U 25203G 26255.12888407 .00000058 00000+0 41278-4 0 9992 2 65571 81.2983 290.3259 0005355 333.5519 26.5363 13.83824264050713 PRAETORIAN SDA_609 1 65572U 25203H 26255.10919450 .00000182 00000+0 15302-3 0 9990 2 65572 81.3023 290.3123 0005996 324.9158 35.1603 13.84216384050727 PRAETORIAN SDA_610 1 65573U 25203J 26255.12315422 .00000058 00000+0 41856-4 0 9998 2 65573 81.2987 290.3225 0006074 331.2157 28.8664 13.83533590050712 PRAETORIAN SDA_611 1 65574U 25203K 26255.14139036 .00000276 00000+0 24061-3 0 9996 2 65574 81.2981 290.5071 0004982 340.1054 19.9907 13.83315138050705 PRAETORIAN SDA_612 1 65575U 25203L 26255.09473356 .00000168 00000+0 13827-3 0 9995 2 65575 81.3007 289.9221 0008452 321.8824 38.1734 13.85038950050743 PRAETORIAN SDA_613 1 65576U 25203M 26255.10987481 .00000058 00000+0 42748-4 0 9990 2 65576 81.2977 290.6003 0004944 327.3793 32.7057 13.82772234050693 PRAETORIAN SDA_614 1 65577U 25203N 26255.10026280 .00000039 00000+0 24407-4 0 9993 2 65577 81.2991 290.0168 0006341 321.9939 38.0770 13.84783834050748 PRAETORIAN SDA_615 1 65578U 25203P 26255.09855488 .00000189 00000+0 15847-3 0 9995 2 65578 81.3005 290.0362 0008244 321.2534 38.8031 13.84442553050737 PRAETORIAN SDA_616 1 65579U 25203Q 26255.14314301 .00000182 00000+0 15493-3 0 9996 2 65579 81.3030 290.7080 0004753 339.4390 20.6574 13.83277151050709 PRAETORIAN SDA_617 1 65580U 25203R 26255.09981400 .00000056 00000+0 39985-4 0 9995 2 65580 81.3015 290.5714 0006600 322.6614 37.4083 13.83156163050702 PRAETORIAN SDA_618 1 65581U 25203S 26255.14723294 .00000227 00000+0 19274-3 0 9995 2 65581 81.2998 289.9428 0009063 323.9174 36.1370 13.84228798050741 PRAETORIAN SDA_619 1 65582U 25203T 26255.14222220 .00000182 00000+0 15365-3 0 9996 2 65582 81.3019 290.3327 0007403 322.8303 37.2340 13.83731336051352 PRAETORIAN SDA_620 1 65583U 25203U 26255.12843279 .00000204 00000+0 17565-3 0 9997 2 65583 81.3010 290.4195 0006653 320.3979 39.6690 13.83212107050719 PRAETORIAN SDA_621 1 65584U 25203V 26255.14207913 .00000063 00000+0 46105-4 0 9995 2 65584 81.2998 290.2460 0006498 316.1364 43.9275 13.83808956050726 PRAETORIAN SDA_601 1 65585U 25203W 26255.15255257 .00000143 00000+0 11948-3 0 9996 2 65585 81.3012 290.6333 0005014 341.0613 19.0356 13.83175191050705 VICTUS HAZE PUMA 1 69646U 26142A 26255.24888808 .00003149 00000+0 14321-3 0 9992 2 69646 97.4526 151.8484 0014921 152.7817 207.4204 15.21382594012906